[[{"header":{"parameterUnit":"m.s-1","parameterCategory":1,"la1":30.2991,"la2":30.254,"lo1":-89.0895,"lo2":-89.0444,"dy":0.0017,"dx":0.0017,"nx":28,"ny":28,"refTime":"2023-10-30T09:00:00:Z","depth":0,"parameterNumber":2,"parameterNumberName":"U-component_of_WINDS"},"data":[0,0,0,0,0,0,0,0,0,0,0,0,0,0,0,0,0,0,0,0,0,0,0,0,0,0,0,0,0,0,0,0,0,0,0,0,0,0,0,0,0,0,0,0,0,0,0,0,0,0,0,0,0,0,0,0,0,0,1.093,1.093,0,1.095,1.095,1.095,1.0955,1.0955,1.0955,1.0955,1.0975,1.0976,1.0977,0,0,0,0,0,0,0,0,0,0,0,0,0,1.09,1.09,1.093,1.093,1.0931,1.095,1.095,1.095,1.0955,1.0955,1.0955,1.0955,1.0975,1.0976,1.0977,0,0,0,0,0,0,0,0,0,0,0,0,0,1.0915,1.09,1.093,1.0936,1.0936,1.0949,1.095,1.095,1.0956,1.0955,1.0955,1.0955,1.0975,1.0976,1.0977,1.0986,0,0,1.098,1.098,0,0,0,0,0,0,0,0,1.0915,1.0917,1.0935,1.0935,1.0936,1.095,1.0946,1.0962,1.0956,1.0948,1.0955,1.0955,1.0967,1.0969,1.0973,1.0987,1.0988,1.098,1.098,1.0981,1.0981,0,0,0,0,0,0,0,1.0913,1.0916,1.0938,1.0935,1.0936,1.0938,1.094,1.0949,1.0958,1.0949,1.0949,1.0952,1.0967,1.0972,1.0973,1.0988,1.098,1.0981,1.0981,1.0982,1.1013,1.1013,0,0,0,0,0,0,1.0911,1.0915,1.0937,1.0938,1.0925,1.0938,1.0941,1.0946,1.0958,1.096,1.0952,1.0952,1.097,1.0972,1.0974,1.0986,1.0981,1.0982,1.0982,1.1012,1.1013,1.1013,0,0,0,0,0,0,1.0911,1.0913,1.0937,1.0927,1.093,1.0939,1.0945,1.0946,1.095,1.096,1.0962,1.0954,1.097,1.0973,1.0983,1.0987,1.0982,1.0983,1.1012,1.1012,1.1013,1.101,0,0,0,0,0,0,1.091,1.0913,1.0916,1.0927,1.093,1.0945,1.0945,1.0947,1.0952,1.0952,1.0963,1.0965,1.097,1.0982,1.0984,1.0988,1.0984,1.1012,1.1012,1.1013,1.101,1.101,1.1011,0,0,0,0,0,1.0909,1.0914,1.0916,1.0919,1.0934,1.0945,1.0947,1.0953,1.0952,1.0956,1.0962,1.0965,1.0986,1.0983,1.0986,1.099,1.1011,1.1012,1.1013,1.101,1.101,1.1011,0,0,0,0,0,0,1.0903,1.0916,1.0918,1.0927,1.0935,1.0946,1.095,1.0953,1.0962,1.0961,1.0969,1.0971,1.0981,1.0987,1.0983,1.1,1.0999,1.1,1.0996,1.0997,1.0997,1.0995,1.0985,0,0,0,0,0,1.0903,1.0911,1.0921,1.0928,1.0932,1.0941,1.0946,1.095,1.0958,1.0962,1.0969,1.0977,1.0986,1.0992,1.1001,1.1011,1.1014,1.1016,1.1016,1.1017,1.1017,1.1024,1.1025,1.1015,1.1015,1.1015,0,0,1.0903,1.0911,1.0915,1.0928,1.0934,1.0942,1.0943,1.0952,1.0958,1.0963,1.0973,1.0979,1.099,1.1,1.1006,1.1005,1.1021,1.1017,1.1017,1.1018,1.1025,1.1026,1.1027,1.1015,1.1015,1.1015,0,0,1.0907,1.0913,1.092,1.0927,1.0937,1.0943,1.0945,1.0956,1.096,1.0971,1.0975,1.0984,1.0998,1.1006,1.1011,1.102,1.1023,1.1023,1.1025,1.1032,1.1032,1.1033,1.1037,1.1038,1.1024,1.1024,1.1024,0,1.0905,1.0917,1.0924,1.0932,1.0938,1.0943,1.0951,1.0958,1.097,1.0974,1.0974,1.0994,1.1001,1.1014,1.1017,1.1021,1.1024,1.1021,1.1032,1.1033,1.1033,1.1037,1.1038,1.1024,1.1024,1.1024,1.1024,0,1.0915,1.0923,1.0928,1.094,1.0947,1.0955,1.0963,1.0969,1.0974,1.098,1.0991,1.1001,1.1012,1.1015,1.1019,1.103,1.1029,1.103,1.1029,1.1034,1.1038,1.1039,1.1024,1.1024,1.1024,1.1024,0,0,1.0914,1.0931,1.0933,1.0939,1.0952,1.0958,1.0968,1.0978,1.0984,1.0993,1.1001,1.1014,1.1016,1.1022,1.1027,1.1034,1.1041,1.1034,1.1034,1.1035,1.1054,1.1052,1.1054,1.1043,1.1043,1.1044,1.1053,0,1.092,1.0935,1.0942,1.0955,1.0963,1.097,1.0978,1.0987,1.0993,1.1002,1.1009,1.1019,1.102,1.1024,1.103,1.1038,1.1045,1.1038,1.1051,1.1051,1.1047,1.1055,1.1054,1.1062,1.1054,1.1054,1.1055,0,1.0927,1.0937,1.095,1.0963,1.0967,1.0974,1.0985,1.0993,1.1004,1.1008,1.1017,1.1022,1.1032,1.1031,1.1047,1.1042,1.1048,1.1053,1.1054,1.1054,1.1053,1.1056,1.1065,1.1066,1.1057,1.1057,1.1056,0,1.0926,1.0942,1.0952,1.0957,1.0972,1.0977,1.0984,1.0995,1.1001,1.1012,1.1016,1.1028,1.1034,1.1043,1.1052,1.105,1.1067,1.1066,1.1071,1.1071,1.1073,1.1073,1.1082,1.1078,1.1078,1.1078,1.1078,0,1.0931,1.0939,1.0952,1.0958,1.0968,1.0977,1.0986,1.0993,1.1003,1.1012,1.1018,1.1026,1.1037,1.1047,1.1054,1.1066,1.1069,1.1073,1.1075,1.1072,1.1072,1.1076,1.1075,1.1078,1.1078,1.1078,1.1078,0,1.093,1.0939,1.0951,1.0965,1.0968,1.0975,1.0987,1.0994,1.1002,1.1012,1.1015,1.1027,1.1039,1.1049,1.1064,1.1069,1.1082,1.1084,1.1078,1.1079,1.1083,1.1082,1.1095,1.1097,1.1092,1.1092,1.1092,0,1.0932,1.0938,1.0953,1.0959,1.0966,1.0976,1.0983,1.0992,1.1,1.1014,1.1019,1.1031,1.1042,1.1061,1.1071,1.1083,1.1086,1.1089,1.1087,1.1085,1.1086,1.1085,1.1086,1.1089,1.1089,1.1089,1.1089,0,1.0935,1.094,1.0949,1.0961,1.0969,1.0979,1.0989,1.0994,1.1005,1.1013,1.1026,1.1034,1.105,1.1063,1.1076,1.1084,1.1089,1.109,1.1092,1.1089,1.1085,1.1087,1.1078,1.1089,1.1089,1.1089,1.1089,1.1089,1.0936,1.0942,1.0954,1.0965,1.0973,1.0983,1.099,1.0999,1.101,1.1023,1.1029,1.1042,1.1054,1.1073,1.1081,1.1092,1.1092,1.1095,1.1095,1.1096,1.1095,1.1084,1.1094,1.1094,1.1094,1.1094,1.1094,0,1.0939,1.0947,1.0957,1.0971,1.098,1.0984,1.0996,1.1003,1.1014,1.1026,1.1036,1.1051,1.1063,1.1075,1.1089,1.1095,1.1098,1.1098,1.1098,1.11,1.1094,1.1091,1.1096,1.1096,1.1096,1.1096,1.1096,1.1096,1.0942,1.0953,1.0959,1.0975,1.0984,1.0996,1.1002,1.1012,1.1021,1.1037,1.1047,1.1055,1.1067,1.1082,1.1094,1.1097,1.1102,1.1102,1.1106,1.11,1.11,1.11,1.1097,1.1103,1.1103,1.111,1.1111,1.1111]},{"header":{"parameterUnit":"m.s-1","parameterCategory":1,"la1":30.2991,"la2":30.254,"lo1":-89.0895,"lo2":-89.0444,"dy":0.0017,"dx":0.0017,"nx":28,"ny":28,"refTime":"2023-10-30T09:00:00:Z","depth":0,"parameterNumber":3,"parameterNumberName":"V-component_of_WINDS"},"data":[0,0,0,0,0,0,0,0,0,0,0,0,0,0,0,0,0,0,0,0,0,0,0,0,0,0,0,0,0,0,0,0,0,0,0,0,0,0,0,0,0,0,0,0,0,0,0,0,0,0,0,0,0,0,0,0,0,0,-8.63,-8.6301,0,-8.6418,-8.6419,-8.6421,-8.6354,-8.6351,-8.6348,-8.6345,-8.6458,-8.6464,-8.647,0,0,0,0,0,0,0,0,0,0,0,0,0,-8.6009,-8.6014,-8.6299,-8.6301,-8.6302,-8.6418,-8.642,-8.6421,-8.6355,-8.6351,-8.6347,-8.6343,-8.6456,-8.6463,-8.6471,0,0,0,0,0,0,0,0,0,0,0,0,0,-8.6132,-8.6016,-8.6299,-8.6284,-8.6283,-8.6418,-8.642,-8.6422,-8.6356,-8.6351,-8.6346,-8.6341,-8.6454,-8.6463,-8.6472,-8.6625,0,0,-8.6499,-8.6503,0,0,0,0,0,0,0,0,-8.6125,-8.6142,-8.6284,-8.6285,-8.6285,-8.6367,-8.6358,-8.649,-8.6357,-8.6328,-8.6345,-8.6339,-8.6431,-8.6442,-8.6474,-8.6631,-8.6636,-8.65,-8.6506,-8.6509,-8.6512,0,0,0,0,0,0,0,-8.6116,-8.6137,-8.6346,-8.6286,-8.6287,-8.6268,-8.628,-8.6383,-8.6405,-8.633,-8.6326,-8.6341,-8.643,-8.6466,-8.6477,-8.6637,-8.65,-8.6508,-8.6513,-8.6517,-8.6926,-8.6931,0,0,0,0,0,0,-8.611,-8.613,-8.6342,-8.635,-8.6191,-8.6278,-8.6291,-8.6345,-8.6404,-8.6408,-8.6345,-8.6338,-8.6453,-8.6466,-8.648,-8.6665,-8.6509,-8.6518,-8.6523,-8.6921,-8.6927,-8.6933,0,0,0,0,0,0,-8.6104,-8.6129,-8.6337,-8.6239,-8.6264,-8.6288,-8.6349,-8.635,-8.6386,-8.6415,-8.6418,-8.6378,-8.6449,-8.6467,-8.6591,-8.6668,-8.6522,-8.653,-8.6914,-8.6923,-8.693,-8.7035,0,0,0,0,0,0,-8.6096,-8.6128,-8.6188,-8.6241,-8.627,-8.6448,-8.6354,-8.6356,-8.6403,-8.6394,-8.6447,-8.6451,-8.6447,-8.6577,-8.66,-8.6678,-8.6537,-8.6908,-8.6918,-8.6928,-8.7025,-8.7046,-8.7064,0,0,0,0,0,-8.6086,-8.6211,-8.6191,-8.6217,-8.6346,-8.6453,-8.6469,-8.6464,-8.6409,-8.6469,-8.6488,-8.6449,-8.6656,-8.6591,-8.6615,-8.6697,-8.6903,-8.6915,-8.6927,-8.7016,-8.7042,-8.7064,0,0,0,0,0,0,-8.6163,-8.6217,-8.6196,-8.6343,-8.6394,-8.6442,-8.6517,-8.6491,-8.6557,-8.6546,-8.6534,-8.6547,-8.6675,-8.6698,-8.6624,-8.6849,-8.677,-8.6788,-8.683,-8.6855,-8.6874,-8.6865,-8.6545,0,0,0,0,0,-8.6197,-8.6282,-8.6324,-8.6449,-8.6476,-8.6493,-8.6539,-8.6531,-8.6583,-8.6603,-8.6631,-8.6681,-8.6757,-8.6807,-8.6878,-8.7028,-8.7038,-8.7097,-8.7116,-8.7132,-8.7147,-8.7228,-8.7255,-8.6973,-8.6973,-8.6973,0,0,-8.6268,-8.6309,-8.6362,-8.6466,-8.6505,-8.6591,-8.6511,-8.6605,-8.6668,-8.6616,-8.6735,-8.6758,-8.6812,-8.695,-8.7011,-8.6973,-8.7227,-8.7148,-8.716,-8.7167,-8.7244,-8.727,-8.7294,-8.6982,-8.698,-8.6979,0,0,-8.6442,-8.6482,-8.6591,-8.6633,-8.6694,-8.6704,-8.6731,-8.6783,-8.6797,-8.6917,-8.688,-8.6953,-8.7085,-8.7126,-8.7163,-8.7355,-8.7322,-8.7379,-8.748,-8.7559,-8.7582,-8.7601,-8.767,-8.7694,-8.7394,-8.7394,-8.7394,0,-8.6522,-8.6654,-8.6649,-8.6748,-8.6794,-8.6755,-8.6864,-8.6904,-8.6984,-8.7016,-8.6972,-8.7137,-8.7171,-8.7318,-8.7365,-8.7397,-8.7425,-8.7372,-8.7579,-8.7599,-8.7617,-8.7682,-8.7708,-8.74,-8.74,-8.7399,-8.7398,0,-8.6749,-8.684,-8.6921,-8.7004,-8.7059,-8.7162,-8.7172,-8.7228,-8.7216,-8.723,-8.7352,-8.7392,-8.7471,-8.7505,-8.7493,-8.7651,-8.7625,-8.7581,-8.7501,-8.7651,-8.7712,-8.7736,-8.741,-8.7407,-8.7405,-8.7404,0,0,-8.6973,-8.7055,-8.7084,-8.7122,-8.7187,-8.7257,-8.7358,-8.7439,-8.7487,-8.7544,-8.7627,-8.7741,-8.7701,-8.7744,-8.7735,-8.7805,-8.7955,-8.7752,-8.7753,-8.7789,-8.8132,-8.8165,-8.8194,-8.7934,-8.7939,-8.7943,-8.8127,0,-8.7151,-8.7332,-8.7332,-8.7497,-8.7582,-8.7546,-8.7634,-8.7683,-8.7699,-8.7771,-8.7788,-8.7869,-8.781,-8.7836,-8.7904,-8.7923,-8.8024,-8.791,-8.801,-8.8014,-8.7998,-8.8226,-8.8261,-8.8433,-8.8151,-8.8155,-8.8158,0,-8.7384,-8.7452,-8.7627,-8.7682,-8.7718,-8.7797,-8.7872,-8.7942,-8.7996,-8.8003,-8.8053,-8.8034,-8.8135,-8.8054,-8.8192,-8.8114,-8.8155,-8.8171,-8.8178,-8.8186,-8.8095,-8.824,-8.8488,-8.8514,-8.8196,-8.8193,-8.819,0,-8.753,-8.7666,-8.7788,-8.7821,-8.7889,-8.7945,-8.7975,-8.8025,-8.8074,-8.8139,-8.817,-8.8244,-8.8285,-8.8342,-8.8343,-8.8284,-8.8483,-8.8402,-8.8491,-8.8491,-8.8533,-8.8531,-8.8791,-8.8561,-8.856,-8.856,-8.8559,0,-8.7729,-8.7838,-8.7856,-8.7931,-8.8051,-8.8049,-8.8167,-8.8192,-8.8237,-8.8315,-8.8287,-8.836,-8.8358,-8.8432,-8.8434,-8.8548,-8.8566,-8.8573,-8.8572,-8.8576,-8.8575,-8.8602,-8.859,-8.8567,-8.8565,-8.8564,-8.8563,0,-8.7913,-8.7929,-8.8061,-8.8115,-8.8131,-8.8217,-8.8262,-8.8333,-8.8348,-8.8447,-8.847,-8.8492,-8.8578,-8.8586,-8.8684,-8.8685,-8.8823,-8.8809,-8.8806,-8.8804,-8.8892,-8.8884,-8.9179,-8.9217,-8.8962,-8.8965,-8.8967,0,-8.8039,-8.8122,-8.8186,-8.8238,-8.8273,-8.8356,-8.8407,-8.8409,-8.8462,-8.8532,-8.8594,-8.8678,-8.8745,-8.8883,-8.8906,-8.8981,-8.8969,-8.9067,-8.898,-8.8981,-8.897,-8.8965,-8.8973,-8.9084,-8.9086,-8.9089,-8.9091,0,-8.8261,-8.8265,-8.8342,-8.8422,-8.8485,-8.8547,-8.8605,-8.8648,-8.8656,-8.8718,-8.8807,-8.886,-8.8962,-8.9045,-8.9119,-8.9147,-8.912,-8.9118,-8.9143,-8.9147,-8.9142,-8.9146,-8.8852,-8.9111,-8.9109,-8.9108,-8.9106,-8.9106,-8.8419,-8.8492,-8.855,-8.8636,-8.868,-8.8736,-8.8806,-8.8831,-8.8906,-8.8992,-8.8988,-8.9086,-8.9138,-8.9236,-8.927,-8.9345,-8.9311,-8.9347,-8.9356,-8.9365,-8.9374,-8.9131,-8.9358,-8.9358,-8.9357,-8.9357,-8.9356,0,-8.864,-8.8676,-8.8755,-8.884,-8.8907,-8.888,-8.8943,-8.9,-8.9088,-8.9141,-8.9209,-8.9311,-8.9392,-8.9423,-8.9502,-8.9556,-8.9546,-8.9577,-8.9572,-8.9579,-8.9399,-8.937,-8.9584,-8.9584,-8.9584,-8.9584,-8.9584,-8.9584,-8.8763,-8.8885,-8.8897,-8.904,-8.9074,-8.9174,-8.9212,-8.9263,-8.9305,-8.9422,-8.949,-8.9511,-8.9555,-8.9636,-8.9709,-8.9716,-8.9746,-8.9782,-8.9783,-8.9615,-8.9592,-8.957,-8.9542,-8.9789,-8.9789,-8.9957,-8.9958,-8.996]}]]